Weather in Novyy Ropsk

Russia / Bryansk Oblast     52°17′54″N   32°18′44″E
temp.,
°C
wind,
m/s
gust,
m/s
humid.,
%
clouds,
%
prec.,
mm/h
press.,
hPa
HPBL,
m
26 february, fri
fri2600:00+3wnw47100100 0.0 1023127
03:00+2wsw36100100 0.0 1023133
06:00+2wsw51099100 0.0 1021240
09:00+3wsw511100100 0.1 1018246
12:00+3w511100100 0.0 1017286
15:00+4w612100100 0.0 1016373
18:00+3w51297100 0.0 1015322
21:00+2w51391100 0.0 1015320
27 february, sat
sat2700:00+2w51291100 0.0 1014332
03:00+2w51093100 0.0 1014294
06:00+1w51195100 0.1 1012384
09:00+1wnw51098100 0.1 1013520
12:00+2wnw4999100 0.2 1012377
15:00+2wnw4999100 0.4 1013404
18:00+1nw4897100 0.3 1013354
21:00+1nnw5997100 0.3 1015380
28 february, sun
sun2800:00+1nnw489897 0.1 1017364
03:000nnw599699 0.3 1019468
06:00−1nnw489397 0.1 1020335
09:000nnw589196 0.2 1021589
12:00+1nnw578297 0.1 1022723
15:00+1nnw577798 0.2 1022895
18:000nw4989100 0.2 1022616
21:00−1nw3792100 0.3 1024337
1 march, mon
mon100:00−1nnw249294 0.1 1024142
03:00−1nnw248989 0.1 1026124
06:00−2nnw368829 0.0 1027167
09:00−2nnw358528 0.0 1028214
12:00+1nw357810 0.0 1029551
15:00+1nw478752 0.0 1029572
18:00+1wnw379099 0.0 1029299
21:00+1w379099 0.1 1029210
2 march, tue
tue200:00+1w489099 0.0 1028276
03:00+1w4896100 0.0 1027270
06:00+1w51096100 0.0 1025326
09:00+2wnw51193100 0.0 1025513
12:00+3nw71283100 0.0 1025601
15:00+5nw61274100 0.0 1025716
18:00+3wnw5128664 0.0 1025322
21:00+2nw4118932 0.0 1025262